STARLINK-11445 [DTC]

Last updated on Thu Jan 23 2025 00:02:04 GMT+0000 (Coordinated Universal Time)

1 62414U 24249F 25022.48563051 .00008894 00000+0 53931-4 0 9994 2 62414 42.9979 127.6388 0002220 286.6889 73.3737 15.77851145 4791
UTC large
Height (km)
Speed (km/s)
/
Latitude / Longitude
Inclination (degrees)
Orbital Period (minutes)
Azimuth
Elevation
Range (km)
Doppler Factor

Next 0 passes for location: London (51.5072 / 0.1276)

Sorry there are no passes over London.